Regional Weather Roundup
Issued by NWS

Home | Current Version | Previous Version | Text Only | Print | Product List | Glossary On
Versions: 1 2 3 4 5 6 7 8 9 10 11 12 13 14 15 16 17 18 19 20 21 22 23 24 25 26 27 28 29 30 31 32 33 34 35 36 37 38 39 40 41 42 43 44 45 46 47 48 49 50
000
ASUS43 KMPX 290901
RWRMN
WEATHER ROUNDUP FOR MINNESOTA
NATIONAL WEATHER SERVICE TWIN CITIES/CHANHASSEN MN
400 AM CDT SUN MAY 29 2016


NOTE: "FAIR" INDICATES FEW OR NO CLOUDS BELOW 12,000 FEET WITH NO
SIGNIFICANT WEATHER AND/OR OBSTRUCTIONS TO VISIBILITY. N/A MEANS
CURRENT SKY AND/OR WEATHER CONDITIONS ARE NOT AVAILABLE.

MNZ060>063-068>070-291000-
   Twin Cities Metro

CITY           SKY/WX    TMP DP  RH WIND       PRES   REMARKS
TWIN CITIES    CLOUDY    62  59  90 W5        29.84S
ST PAUL        MOCLDY    61  59  93 W6        29.83S
CRYSTAL        CLOUDY    62  58  86 W7        29.82S
BLAINE         CLOUDY    63  63 100 W5        29.83S
EDEN PRAIRIE   CLOUDY    62  59  90 W5        29.84R
SOUTH ST PAUL  PTCLDY    61  60  96 W6        29.84R
LAKE ELMO      FAIR      59  59 100 CALM      29.84S FOG
$$
MNZ001>005-007-008-013>017-022>024-027-028-291000-
   Northwest Minnesota

CITY           SKY/WX    TMP DP  RH WIND       PRES   REMARKS
BEMIDJI        RAIN      55  55  99 W6        29.84R
HALLOCK        CLOUDY    57  55  94 N5        29.87S
ROSEAU         DRIZZLE   55  52  88 NW5       29.85F
WARROAD        DRIZZLE   54  50  87 NW3       29.85S
THIEF RVR FALL CLOUDY    55  54  94 NW6       29.88S
CROOKSTON      CLOUDY    57  57 100 CALM      29.88S
FOSSTON        CLOUDY    54  54 100 NW6       29.87S
DETROIT LAKES  RAIN      57  55  94 NW10G16   29.88R
MOORHEAD       LGT RAIN  59  57  94 W7        29.89R
PARK RAPIDS    LGT RAIN  59  57  93 NW8       29.83S
MAHNOMEN       DRIZZLE   56  56  99 NW6       29.87R
$$
MNZ006-009>011-018-025>026-291000-
   North Central Minnesota

CITY           SKY/WX    TMP DP  RH WIND       PRES   REMARKS
BAUDETTE       LGT RAIN  55  54  96 NW9       29.82S FOG
FLAG ISLAND    LGT RAIN  55  52  88 N9        29.82F
INTL FALLS     FOG       56  56 100 NW3       29.78F VSB 1/4
WASKISH        DRIZZLE   55  54  94 NW10      29.82S
BIG FORK       LGT RAIN  57  55  94 CALM      29.79F
LONGVILLE      CLOUDY    57  57 100 W6        29.81S FOG
GRAND RAPIDS   LGT RAIN  59  58  96 W6        29.81S FOG
CRANE LAKE     LGT RAIN  57  57 100 CALM      29.79S
ORR            LGT RAIN  57  55  94 CALM      29.76S
COOK           RAIN      57  57 100 CALM      29.79S
WALKER         LGT RAIN  56  56  97 W6        29.82R
$$
MNZ012-019>021-037-291000-
   Northeast Minnesota

CITY           SKY/WX    TMP DP  RH WIND       PRES   REMARKS
DULUTH         LGT RAIN  57  55  93 W5        29.79S FOG
ELY            CLOUDY    57  57 100 W3        29.77F
HIBBING        FOG       57  57 100 CALM      29.78F VSB 1/2
EVELETH        CLOUDY    57  55  94 CALM      29.80S FOG
DULUTH HARBOR  CLOUDY    54  52  94 S3        29.80S FOG
TWO HARBORS    CLOUDY    55  52  88 CALM      29.77S HAZE
SILVER BAY     LGT RAIN  55  54  94 CALM      29.76F
GRAND MARAIS     N/A     46  45  96 CALM      29.78F
G MARAIS ARPRT LGT RAIN  57  54  88 CALM      29.79S VSB 1/4
$$
MNZ029>031-032-039>041-046>048-054>057-064-291000-
   West Central Minnesota

CITY           SKY/WX    TMP DP  RH WIND       PRES   REMARKS
FERGUS FALLS   CLOUDY    59  59 100 NW7       29.86R
WHEATON        CLOUDY    59  57  94 W3        29.91S
MORRIS           N/A     57  55  94 W7        29.89R FOG
ALEXANDRIA     CLOUDY    59  57  93 W12       29.88R
ELBOW LAKE     CLOUDY    58  57  99 NW7       29.89R
WADENA         RAIN      57  57 100 W6        29.85R
GLENWOOD       CLOUDY    59  57  94 W10       29.88S
APPLETON       PTCLDY    57  55  94 W7        29.89S
BENSON         PTCLDY    57  54  88 NW6       29.89R
ORTONVILLE     CLOUDY    59  55  88 NW5       29.91R
MADISON        MOCLDY    57  55  94 W6        29.91S
WILLMAR        MOCLDY    61  59  94 W7        29.90R
$$
MNZ033>034-036-042>043-049>051-058-059-291000-
   Central Minnesota

CITY           SKY/WX    TMP DP  RH WIND       PRES   REMARKS
ST CLOUD       CLOUDY    60  58  92 W7        29.83S
SAUK CENTRE    DRIZZLE   58  58  97 W9        29.86S
PAYNESVILLE    DRIZZLE   59  59 100 W7        29.87S
AITKIN         CLOUDY    61  55  82 CALM      29.80S HAZE
PINE RIVER     CLOUDY    57  57 100 CALM      29.86R
BRAINERD       CLOUDY    59  58  96 W7        29.82S
STAPLES        DRIZZLE   57  55  94 W9        29.84S
LONG PRAIRIE   LGT RAIN  59  57  94 SW7       29.86R
LITTLE FALLS   CLOUDY    59  55  88 CALM      29.84S
LITCHFIELD     DRIZZLE   63  61  94 W7        29.87R
BUFFALO        CLOUDY    60  57  89 W5        29.86R
MAPLE LAKE     CLOUDY    62  60  93 W5        29.85S
HUTCHINSON     CLOUDY    62  60  94 W12       29.88R
$$
MNZ037-044-045-052-053-291000-
   East Central Minnesota

CITY           SKY/WX    TMP DP  RH WIND       PRES   REMARKS
PRINCETON        N/A     61  57  88 CALM      29.83S
MORA           CLOUDY    55  55 100 CALM      29.84S
CAMBRIDGE      CLOUDY    63  54  72 W6        29.81S
RUSH CITY      CLOUDY    59  58  95 CALM      29.83R
MOOSE LAKE     CLOUDY    55  55 100 CALM      29.79S FOG
HINCKLEY       CLOUDY    59  59 100 SW3       29.81S
CLOQUET        CLOUDY    55  54  94 CALM      29.80S FOG
MCGREGOR       CLOUDY    59  57  94 W3        29.81S
$$
MNZ071>073-080-081-089-090-097-098-291000-
   Southwest Minnesota

CITY           SKY/WX    TMP DP  RH WIND       PRES   REMARKS
MONTEVIDEO     PTCLDY    57  57 100 NW5       29.92R
GRANITE FALLS  MOCLDY    60  58  92 W8        29.92S
CANBY          PTCLDY    62  59  90 W10       29.92S
MARSHALL       CLOUDY    58  55  90 W9        29.92R
REDWOOD FALLS  CLOUDY    61  57  87 W12       29.90R
OLIVIA         CLOUDY    59  55  88 W10       29.89R FOG
PIPESTONE      FOG       55  55 100 CALM      29.95S VSB 1
WINDOM         CLEAR     59  57  94 W5        29.93R FOG
WORTHINGTON    MOCLDY    57  57 100 W10       29.95S FOG
JACKSON        PTCLDY    59  55  88 W10       29.94S FOG
TRACY          MOCLDY    60  57  91 W5        29.92S
SLAYTON        MOCLDY    57  57  99 W7        29.95S
$$
MNZ065>067-074>077-082>085-091>093-291000-
   South Central Minnesota

CITY           SKY/WX    TMP DP  RH WIND       PRES   REMARKS
MANKATO        MOCLDY    61  57  88 W8        29.89R
NEW ULM        MOCLDY    61  59  94 W10G16    29.89R
ST JAMES       PTCLDY    55  54  94 W12       29.92R
FAIRMONT       CLEAR     59  55  88 W7        29.92R
GLENCOE        CLOUDY    62  61  97 W7        29.86R
FARIBAULT      CLOUDY    61  61 100 W5        29.86S
OWATONNA       CLOUDY    61  57  88 W7        29.88R
WASECA         PTCLDY    59  57  94 W9        29.90R FOG
ALBERT LEA     PTCLDY    61  61 100 W5        29.90R
$$
MNZ078>079-086>088-094>096-291000-
   Southeast Minnesota

CITY           SKY/WX    TMP DP  RH WIND       PRES   REMARKS
ROCHESTER      MOCLDY    61  60  97 W9        29.87S
RED WING       CLOUDY    63  61  94 W3        29.83S FOG
STANTON        MOCLDY    59  57  92 SW5       29.84S FOG
DODGE CENTER   CLOUDY    59  57  94 W7        29.87R FOG
WINONA         LGT RAIN  63  59  88 W5        29.83S
AUSTIN         CLOUDY    61  57  88 W6        29.88R
PRESTON        CLOUDY    61  59  92 W10       29.87R
$$
ABBREVIATIONS USED IN REMARKS
   TC - TEMPERATURES IN CELSIUS
  WCI - WIND CHILL INDEX
   HX - HEAT INDEX
  VSB - VISIBILITY
$$




USA.gov is the U.S. government's official web portal to all federal, state and local government web resources and services.